#timestamp,LO_Frequency,Hit,StdDev 
1557846015.6,286047036.8,Y
1557846035.4,286047014.7,P
1557846055.2,286047015.9,P
1557846075.1,286047021.7,P
1557846076.0,286047021.7,Y
1557846095.8,286046999.8,P
1557846115.7,286047004.7,N
1557846135.5,286047003.9,N
1557846155.3,286047001.8,N
1557846175.2,286047004.6,N
1557846195.0,286047002.8,N
1557846195.9,286047002.8,N
1557846215.7,286046998.8,N
1557846235.6,286047004.0,N
1557846255.4,286047003.5,N
1557846275.3,286047003.4,N
1557846295.1,286047005.5,N
1557846296.0,286047005.5,N
1557846315.8,286047007.1,N
1557846335.7,286047007.9,N
1557846355.5,286047008.8,N
1557846375.4,286047009.6,N
1557846395.2,286047013.8,Y
1557846415.0,286047006.9,P
1557846415.9,286047006.9,P
1557846435.8,286047009.2,P
1557846455.6,286047006.8,Y
1557846475.4,286046996.8,P
1557846495.3,286046997.4,N
1557846515.1,286046998.6,N
1557846535.9,286046996.7,N
1557846555.7,286046999.7,N
1557846575.5,286047000.6,N
1557846595.4,286046998.3,N
1557846615.2,286047000.0,N
1557846635.1,286047002.1,N
1557846636.0,286047002.1,N
1557846655.8,286046996.7,N
1557846675.7,286046995.8,N
1557846695.5,286046995.0,N
1557846715.4,286046995.5,N
1557846735.2,286046992.7,N
1557846755.0,286046990.5,N
1557846755.9,286046990.5,N
1557846775.8,286046990.3,N
1557846795.6,286046987.2,Y
1557846815.5,286046987.4,P
1557846835.3,286046992.5,N
1557846855.1,286046997.3,N
1557846875.9,286046995.5,N
1557846895.7,286046999.1,N
1557846915.6,286047001.8,N
1557846935.4,286047001.7,N
1557846955.2,286047002.6,N
1557846975.1,286047009.2,N
1557846976.0,286047009.2,N
1557846995.8,286047007.5,N
1557847015.7,286047007.7,N
1557847035.5,286047008.4,N
1557847055.3,286047006.5,N
1557847075.2,286047007.7,N
1557847095.0,286047008.7,N
1557847095.9,286047008.7,N
1557847115.8,286047007.3,N
1557847135.6,286047011.2,N
1557847155.4,286047020.2,Y
1557847175.3,286047016.2,P
1557847195.1,286047024.8,P
1557847215.8,286047028.0,P
1557847235.7,286047021.8,N
1557847255.5,286047019.0,N
1557847275.4,286047024.7,Y
1557847295.2,286047010.7,P
1557847315.0,286047016.5,P
1557847315.9,286047016.5,P
1557847335.8,286047018.3,Y
1557847355.6,286047005.5,P
1557847375.5,286047005.0,N
1557847395.3,286047005.0,N
1557847415.1,286047007.0,N
1557847435.9,286047005.7,N
1557847455.7,286047006.1,N
1557847475.5,286047006.9,N
1557847495.4,286047003.2,N
1557847515.2,286047002.3,N
1557847535.1,286046997.5,N
1557847536.0,286046997.5,N
1557847555.8,286046994.8,N
1557847575.6,286046996.6,N
1557847595.5,286046993.8,N
1557847615.3,286046992.8,N
1557847635.2,286046989.5,N
1557847655.9,286046986.9,N
1557847675.7,286046987.9,N
1557847695.6,286046985.4,N
1557847715.4,286046984.2,N
1557847735.2,286046982.3,N
1557847755.1,286046980.2,N
1557847756.0,286046980.2,N
1557847775.8,286046971.0,N
1557847795.7,286046976.6,N
1557847815.5,286046971.1,N
1557847835.3,286046971.0,N
1557847855.2,286046970.5,N
1557847875.0,286046965.4,N
1557847875.9,286046965.4,N
1557847895.7,286046965.9,N
1557847915.6,286046959.8,N
1557847935.4,286046962.0,N
1557847955.3,286046957.3,N
1557847975.1,286046952.9,Y
1557847976.0,286046952.9,P
1557847995.8,286046969.9,N
1557848015.7,286046969.1,N
1557848035.5,286046965.8,Y
1557848055.4,286046995.2,P
1557848075.2,286046994.7,N
1557848095.0,286046992.5,N
1557848095.9,286046992.5,N
1557848115.8,286046989.7,N
1557848135.6,286046989.5,N
1557848155.4,286046985.0,N
1557848175.3,286046983.1,N
1557848195.1,286046983.6,N
1557848215.9,286046980.4,N
1557848235.9,286046979.9,N
1557848255.7,286046976.2,Y
1557848275.5,286046992.3,P
1557848295.4,286046991.9,N
1557848315.2,286046991.8,N
1557848335.0,286046998.5,N
1557848336.0,286046998.5,N
1557848355.8,286046997.3,N
1557848375.6,286046997.4,N
1557848395.5,286046998.2,N
1557848415.3,286047001.2,N
1557848435.2,286047056.7,Y
1557848455.9,286047004.2,P
1557848475.7,286047003.0,N
1557848495.6,286047008.0,N
1557848515.4,286047008.8,N
1557848535.3,286047004.8,N
1557848555.1,286047006.3,N
1557848556.0,286047006.3,N
1557848575.8,286047004.9,N
1557848595.7,286047003.9,N
1557848615.5,286047000.3,N
1557848635.3,286046999.4,N
1557848655.2,286046999.5,N
1557848675.0,286046996.8,N
1557848675.9,286046996.8,N
1557848695.8,286046996.7,N
1557848715.6,286047000.7,N
1557848735.4,286047002.7,N
1557848755.3,286047000.6,N
1557848775.1,286046999.7,N
1557848795.9,286047001.0,N
1557848815.7,286046997.7,N
1557848835.5,286046996.5,N
1557848855.4,286046999.2,N
1557848875.2,286046996.5,N
1557848895.0,286046996.6,N
1557848895.9,286046996.6,N
1557848915.8,286046997.1,N
1557848935.6,286046999.2,N
1557848955.5,286046998.9,N
1557848975.3,286046997.5,N
1557848995.1,286046995.0,N
1557849015.9,286046994.5,N
1557849035.7,286046995.9,N
1557849055.5,286046998.1,N
1557849075.4,286047001.8,N
1557849095.2,286046996.6,N
1557849115.1,286047004.6,N
1557849116.0,286047004.6,N
1557849135.8,286047011.7,Y
1557849155.6,286047010.0,P
1557849175.5,286047013.4,N
1557849195.3,286047009.7,N
1557849215.2,286047010.6,N
1557849235.9,286047017.1,Y
1557849255.7,286047003.1,P
1557849275.6,286047003.8,N
1557849295.4,286046999.8,N
1557849315.2,286047012.4,Y
1557849335.1,286047004.9,P
1557849336.0,286047004.9,P
1557849355.8,286047006.8,P
1557849375.7,286047008.2,Y
1557849395.5,286047008.8,P
1557849415.3,286046996.9,N
1557849435.2,286046995.3,N
1557849455.0,286046993.7,N
1557849455.9,286046993.7,N
1557849475.8,286046994.3,N
1557849495.6,286046996.8,N
1557849515.4,286046994.7,N
1557849535.3,286046992.7,N
1557849555.1,286046993.1,N
1557849575.8,286046988.2,N
1557849595.7,286046985.7,N
